User: anonymous   Login
Location: Caltech
(34.1382°N, 118.1253°W)
Time: 20:31:47
(UTC-08:00)
Language:

OAO 2 Rocket - Orbit

View from above orbital plane
View from above orbital plane
View from above satellite
View from above satellite

Ground track
Ground track

The orbit data is extracted from the following two-line orbital elements,

1  3598U 68110B   17054.86245804 +.00000099 +00000-0 +27707-4 0  9990
2  3598 034.9927 257.1361 0048928 027.6096 332.7182 14.54286025529062
Epoch (UTC): 23 February 2017 20:41:56
Eccentricity: 0.0048928
inclination: 34.9927°
perigee height: 677 km
apogee height: 746 km
right ascension of ascending node: 257.1361°
argument of perigee: 27.6096°
revolutions per day: 14.54286025
mean anomaly at epoch: 332.7182°
orbit number at epoch: 52906

The dashed part of the orbit path shows where the satellite is in the earth's shadow,  

DLR